Weather History for Ludington, MI

Change the Weather History Date:

Monday, April 30, 2012

  Actual Average Record
Temperature  
Mean Temperature 48 °F -  
Max Temperature 55 °F 61 °F 85 °F (1970)
Min Temperature 42 °F 37 °F 21 °F (1977)
Degree Days  
Heating Degree Days 16    
Moisture  
Dew Point 42 °F    
Average Humidity 78    
Maximum Humidity 91    
Minimum Humidity 34    
Precipitation  
Precipitation 0.15 in - - ()
Sea Level Pressure  
Sea Level Pressure 29.99 in    
Wind  
Wind Speed 8 mph (SE)    
Max Wind Speed 16 mph    
Max Gust Speed 24 mph    
Visibility 10 miles    
Events Rain    
Averages and records for this station are not official NWS values.
T = Trace of Precipitation, MM = Missing Value Source: NWS Daily Summary

Daily Weather History Graph

Daily Weather History Graph

Search for Another Location

Airport:

Trip Planner

Search our weather history database for the weather conditions in past years. The results will help you decide how hot, cold, wet, or windy it might be!

Date:

Astronomy

Apr. 30, 2012 Rise Set
Actual Time 6:38 AM EDT 8:48 PM EDT
Civil Twilight 6:06 AM EDT 9:19 PM EDT
Nautical Twilight 5:27 AM EDT 9:59 PM EDT
Astronomical Twilight 4:44 AM EDT 10:42 PM EDT
Moon 2:32 PM EDT 3:15 AM EDT
Length of Visible Light 15h 13m
Length of Day
14h 10m
Waxing Gibbous, 63% of the Moon is Illuminated
Apr 30
Waxing Gibbous
May 5
Full
May 12
Last Quarter
May 20
New
May 28
First Quarter

Hourly Weather History & Observations

Time (EDT) Temp. Windchill Dew Point Humidity Pressure Visibility Wind Dir Wind Speed Gust Speed Precip Events Conditions
12:15 AM 55.9 °F - 28.0 °F 34% 30.15 in 10.0 mi SSE 6.9 mph - N/A Rain Light Rain
12:34 AM 52.9 °F - 31.8 °F 45% 30.16 in 10.0 mi SSE 8.1 mph - N/A Rain Light Rain
12:54 AM 50.9 °F - 37.9 °F 61% 30.16 in 10.0 mi SSE 4.6 mph - N/A Rain Rain
1:15 AM 48.4 °F - 40.6 °F 75% 30.16 in 10.0 mi SSE 8.1 mph - 0.01 in Rain Rain
1:34 AM 46.8 °F - 41.0 °F 80% 30.16 in 10.0 mi SSE 11.5 mph - 0.01 in Rain Rain
1:54 AM 44.6 °F 39.2 °F 41.2 °F 88% 30.15 in 5.0 mi SE 10.4 mph - 0.06 in Rain Heavy Rain
2:14 AM 43.9 °F 36.8 °F 41.5 °F 91% 30.12 in 4.0 mi ESE 15.0 mph 20.7 mph 0.07 in Rain Light Rain
2:34 AM 43.9 °F 38.3 °F 41.4 °F 91% 30.11 in 10.0 mi East 10.4 mph 17.3 mph 0.07 in Rain Light Rain
2:55 AM 43.9 °F 39.3 °F 41.2 °F 90% 30.10 in 10.0 mi ESE 8.1 mph 16.1 mph 0.07 in   Overcast
3:14 AM 43.9 °F 39.3 °F 41.0 °F 90% 30.11 in 7.0 mi ESE 8.1 mph - N/A   Drizzle
3:34 AM 43.9 °F 37.9 °F 40.5 °F 88% 30.08 in 10.0 mi ESE 11.5 mph 17.3 mph 0.01 in Rain Rain
3:55 AM 43.7 °F 37.3 °F 39.7 °F 86% 30.08 in 10.0 mi ESE 12.7 mph 19.6 mph 0.01 in   Overcast
4:14 AM 43.3 °F 35.8 °F 39.2 °F 85% 30.06 in 10.0 mi ESE 16.1 mph 24.2 mph N/A   Drizzle
4:34 AM 43.3 °F 36.8 °F 39.2 °F 85% 30.03 in 10.0 mi ESE 12.7 mph - N/A Rain Light Rain
4:55 AM 43.3 °F 35.8 °F 38.3 °F 82% 30.03 in 10.0 mi ESE 16.1 mph 21.9 mph N/A   Overcast
5:14 AM 43.3 °F 37.2 °F 37.6 °F 80% 30.03 in 7.0 mi ESE 11.5 mph 19.6 mph N/A   Heavy Drizzle
5:35 AM 43.3 °F 37.7 °F 37.6 °F 80% 30.02 in 10.0 mi East 10.4 mph - 0.01 in   Overcast
5:54 AM 43.3 °F 39.2 °F 36.7 °F 77% 30.03 in 7.0 mi ESE 6.9 mph - 0.01 in Rain Rain
6:14 AM 43.3 °F 38.6 °F 36.1 °F 76% 30.03 in 10.0 mi SE 8.1 mph 16.1 mph N/A   Overcast
6:35 AM 42.6 °F 36.3 °F 36.3 °F 78% 30.02 in 10.0 mi ESE 11.5 mph - N/A Rain Light Rain
6:54 AM 42.1 °F 36.6 °F 36.3 °F 80% 30.00 in 10.0 mi ESE 9.2 mph - N/A   Overcast
7:15 AM 43.3 °F 39.2 °F 36.9 °F 78% 30.01 in 10.0 mi ESE 6.9 mph - N/A   Overcast
7:35 AM 43.3 °F 37.7 °F 36.5 °F 77% 30.00 in 10.0 mi ESE 10.4 mph - N/A   Overcast
7:54 AM 43.9 °F 37.9 °F 36.9 °F 76% 29.99 in 10.0 mi SE 11.5 mph 18.4 mph N/A   Overcast
8:15 AM 44.6 °F 39.7 °F 37.0 °F 75% 30.00 in 10.0 mi SE 9.2 mph - N/A   Overcast
8:34 AM 45.0 °F 41.2 °F 36.9 °F 73% 30.01 in 10.0 mi SE 6.9 mph - N/A   Overcast
8:54 AM 45.9 °F 42.3 °F 37.6 °F 73% 30.01 in 10.0 mi SE 6.9 mph - N/A   Overcast
9:15 AM 46.2 °F 42.7 °F 37.9 °F 73% 30.00 in 10.0 mi SE 6.9 mph - N/A   Overcast
9:34 AM 48.0 °F - 39.4 °F 72% 30.00 in 10.0 mi SSE 10.4 mph - N/A   Overcast
9:54 AM 47.3 °F - 39.9 °F 76% 29.99 in 10.0 mi ESE 8.1 mph - N/A   Overcast
10:15 AM 45.9 °F 42.3 °F 39.4 °F 78% 29.99 in 10.0 mi SE 6.9 mph 16.1 mph N/A   Overcast
10:34 AM 48.4 °F - 42.1 °F 79% 29.97 in 10.0 mi SE 8.1 mph - N/A   Overcast
10:54 AM 48.4 °F - 42.1 °F 79% 29.97 in 10.0 mi SSE 8.1 mph - N/A   Overcast
11:15 AM 48.4 °F - 41.9 °F 78% 29.96 in 10.0 mi SE 5.8 mph - N/A   Overcast
11:34 AM 50.9 °F - 44.6 °F 79% 29.95 in 10.0 mi ESE 9.2 mph - N/A   Overcast
11:54 AM 50.9 °F - 44.4 °F 78% 29.93 in 10.0 mi SE 5.8 mph - N/A   Overcast
12:14 PM 50.9 °F - 44.6 °F 79% 29.94 in 10.0 mi ESE 8.1 mph - N/A   Overcast
12:34 PM 50.9 °F - 44.6 °F 79% 29.93 in 10.0 mi SSE 5.8 mph - N/A   Overcast
12:55 PM 53.6 °F - 46.2 °F 76% 29.92 in 10.0 mi ESE 4.6 mph - N/A   Overcast
1:14 PM 55.9 °F - 48.4 °F 76% 29.92 in 10.0 mi South 5.8 mph - N/A   Overcast
1:34 PM 55.9 °F - 48.2 °F 75% 29.92 in 7.0 mi South 5.8 mph - N/A   Overcast
1:55 PM 55.9 °F - 48.2 °F 75% 29.92 in 7.0 mi SW 6.9 mph - N/A   Overcast
2:14 PM 55.9 °F - 48.4 °F 76% 29.92 in 7.0 mi WSW 8.1 mph - N/A   Overcast
2:34 PM 55.9 °F - 48.6 °F 76% 29.93 in 10.0 mi WSW 6.9 mph - N/A   Overcast
2:55 PM 55.8 °F - 48.7 °F 77% 29.92 in 10.0 mi West 4.6 mph - N/A   Overcast
3:14 PM 53.6 °F - 46.0 °F 76% 29.93 in 10.0 mi West 8.1 mph - N/A   Overcast
3:35 PM 54.0 °F - 46.2 °F 75% 29.93 in 10.0 mi WSW 6.9 mph - N/A   Overcast
3:54 PM 52.0 °F - 45.3 °F 78% 29.92 in 10.0 mi WSW 9.2 mph - N/A   Overcast
4:14 PM 52.3 °F - 45.7 °F 78% 29.93 in 10.0 mi WSW 6.9 mph - N/A   Overcast
4:35 PM 50.9 °F - 44.2 °F 78% 29.92 in 10.0 mi West 5.8 mph - N/A   Overcast
4:54 PM 50.9 °F - 44.6 °F 79% 29.92 in 10.0 mi WSW 6.9 mph - N/A   Overcast
5:15 PM 50.9 °F - 44.6 °F 79% 29.92 in 10.0 mi West 4.6 mph - N/A   Overcast
5:34 PM 50.9 °F - 44.2 °F 78% 29.92 in 10.0 mi West 3.5 mph - N/A   Overcast
5:54 PM 50.9 °F - 44.2 °F 78% 29.91 in 10.0 mi NW 3.5 mph - N/A   Overcast
6:15 PM 50.9 °F - 44.4 °F 78% 29.91 in 10.0 mi NNW 3.5 mph - N/A   Overcast
6:34 PM 50.9 °F - 44.2 °F 78% 29.90 in 10.0 mi Calm Calm - N/A   Overcast
6:54 PM 50.9 °F - 44.4 °F 78% 29.90 in 10.0 mi Calm Calm - N/A   Overcast
7:15 PM 50.9 °F - 44.4 °F 78% 29.91 in 10.0 mi Calm Calm - N/A   Overcast
7:34 PM 50.9 °F - 44.6 °F 79% 29.91 in 10.0 mi NNW 3.5 mph - N/A   Overcast
7:54 PM 50.9 °F - 44.6 °F 79% 29.92 in 10.0 mi NW 4.6 mph - N/A   Overcast
8:15 PM 50.9 °F - 45.0 °F 80% 29.92 in 10.0 mi NNW 3.5 mph - N/A   Overcast
8:34 PM 50.9 °F - 44.8 °F 80% 29.92 in 10.0 mi NNW 3.5 mph - N/A   Overcast
9:15 PM 50.9 °F - 45.0 °F 80% 29.93 in 10.0 mi Calm Calm - N/A   Overcast
9:34 PM 50.9 °F - 45.3 °F 81% 29.93 in 10.0 mi Calm Calm - N/A   Overcast
9:54 PM 48.4 °F - 43.3 °F 83% 29.94 in 10.0 mi NNW 3.5 mph - N/A   Overcast
10:14 PM 48.4 °F - 43.9 °F 84% 29.94 in 10.0 mi Calm Calm - N/A   Overcast
10:34 PM 48.4 °F - 43.7 °F 84% 29.94 in 10.0 mi Calm Calm - N/A   Overcast
11:14 PM 48.4 °F - 44.1 °F 85% 29.95 in 10.0 mi Calm Calm - N/A   Overcast
11:34 PM 48.4 °F - 43.9 °F 84% 29.96 in 10.0 mi Calm Calm - N/A   Overcast